Saint-Armel Weather Station Historical Data
 
Daily Summary for June 19, 2021 Units:  Metric    English   Both
Daily Weekly Monthly Yearly Custom
  Current: High: Low: Average:
Temperature: 14 °C 16 °C 14 °C 14.7 °C
Dew Point: 14 °C 14 °C 13 °C 13.9 °C
Humidity: 97% 97% 93% 96%
Wind Speed: 3km/h 5km/h 0km/h 1.9km/h
Wind Gust: 6km/h 11km/h - -
WindNE - - NNE
Pressure: 1014.1 hPa 1016.1 hPa 1014.1 hPa -
Precipitation: 0.0 mm      
Historical Graphs
 
 
Tabular Data for June 19, 2021
Time Temperature Dew Point Pressure Wind Wind Speed Wind Gust Humidity Rainfall Rate (Hourly)
00:00 16 °C 14 °C 1015.1 hPa NE 5 km/h 11 km/h 93% 0.0 mm
00:05 15 °C 14 °C 1015.1 hPa NE 2 km/h 6 km/h 93% 0.0 mm
00:10 15 °C 14 °C 1015.1 hPa Calm   3 km/h 93% 0.0 mm
00:15 15 °C 14 °C 1015.1 hPa NNE 2 km/h 6 km/h 94% 0.0 mm
00:20 15 °C 14 °C 1015.1 hPa NNE 2 km/h 6 km/h 94% 0.0 mm
00:25 15 °C 14 °C 1015.1 hPa NNE 2 km/h 6 km/h 94% 0.0 mm
00:30 15 °C 14 °C 1015.1 hPa NNE 2 km/h 6 km/h 94% 0.0 mm
00:35 15 °C 14 °C 1015.1 hPa NNE 2 km/h 6 km/h 95% 0.0 mm
00:40 15 °C 14 °C 1015.1 hPa North 2 km/h 6 km/h 95% 0.0 mm
00:45 15 °C 14 °C 1015.1 hPa NNE 2 km/h 6 km/h 95% 0.0 mm
00:50 15 °C 14 °C 1015.1 hPa NNE 2 km/h 6 km/h 95% 0.0 mm
00:55 15 °C 14 °C 1015.1 hPa NNE 2 km/h 6 km/h 96% 0.0 mm
01:00 15 °C 14 °C 1015.1 hPa NNE 3 km/h 6 km/h 96% 0.0 mm
01:05 15 °C 14 °C 1014.1 hPa NE 2 km/h 6 km/h 95% 0.0 mm
01:10 15 °C 14 °C 1014.1 hPa NNE 2 km/h 5 km/h 95% 0.0 mm
01:15 15 °C 14 °C 1014.1 hPa NNE 2 km/h 6 km/h 95% 0.0 mm
01:20 14 °C 14 °C 1015.1 hPa NNE 2 km/h 6 km/h 95% 0.0 mm
01:25 14 °C 14 °C 1015.1 hPa Calm   3 km/h 95% 0.0 mm
01:30 14 °C 13 °C 1015.1 hPa Calm   2 km/h 95% 0.0 mm
01:35 14 °C 13 °C 1015.1 hPa Calm   2 km/h 95% 0.0 mm
01:40 14 °C 13 °C 1015.1 hPa Calm   2 km/h 95% 0.0 mm
01:45 14 °C 13 °C 1015.1 hPa Calm     96% 0.0 mm
01:50 14 °C 13 °C 1016.1 hPa Calm     96% 0.0 mm
01:55 14 °C 14 °C 1016.1 hPa Calm   2 km/h 96% 0.0 mm
02:00 14 °C 14 °C 1016.1 hPa Calm   6 km/h 96% 0.0 mm
02:05 14 °C 14 °C 1016.1 hPa NE 3 km/h 6 km/h 96% 0.0 mm
02:10 14 °C 14 °C 1016.1 hPa NE 5 km/h 6 km/h 97% 0.0 mm
02:15 15 °C 14 °C 1016.1 hPa ENE 2 km/h 6 km/h 97% 0.0 mm
02:20 15 °C 14 °C 1016.1 hPa Calm     97% 0.0 mm
02:25 15 °C 14 °C 1016.1 hPa Calm   3 km/h 97% 0.0 mm
02:30 15 °C 14 °C 1016.1 hPa NE 2 km/h 10 km/h 97% 0.0 mm
02:35 15 °C 14 °C 1016.1 hPa ENE 3 km/h 10 km/h 97% 0.0 mm
02:40 15 °C 14 °C 1016.1 hPa Calm   5 km/h 97% 0.0 mm
02:45 15 °C 14 °C 1016.1 hPa North 2 km/h 5 km/h 97% 0.0 mm
02:50 15 °C 14 °C 1014.1 hPa North 3 km/h 6 km/h 97% 0.0 mm
02:55 15 °C 14 °C 1014.1 hPa North 3 km/h 6 km/h 96% 0.0 mm
03:00 15 °C 14 °C 1014.1 hPa North 3 km/h 8 km/h 96% 0.0 mm
03:05 15 °C 14 °C 1015.1 hPa NNE 3 km/h 8 km/h 96% 0.0 mm
03:10 15 °C 14 °C 1015.1 hPa NE 3 km/h 6 km/h 96% 0.0 mm
03:15 15 °C 14 °C 1015.1 hPa NE 2 km/h 5 km/h 96% 0.0 mm
03:20 15 °C 14 °C 1015.1 hPa NE 2 km/h 5 km/h 96% 0.0 mm
03:25 15 °C 14 °C 1015.1 hPa Calm   5 km/h 96% 0.0 mm
03:30 15 °C 14 °C 1015.1 hPa ENE 2 km/h 6 km/h 96% 0.0 mm
03:35 15 °C 14 °C 1015.1 hPa ENE 2 km/h 6 km/h 96% 0.0 mm
03:40 15 °C 14 °C 1015.1 hPa NNE 2 km/h 5 km/h 96% 0.0 mm
03:45 15 °C 14 °C 1015.1 hPa North 3 km/h 6 km/h 95% 0.0 mm
03:50 15 °C 14 °C 1015.1 hPa NNE 3 km/h 6 km/h 96% 0.0 mm
03:55 15 °C 14 °C 1015.1 hPa NE 3 km/h 6 km/h 96% 0.0 mm
04:00 15 °C 14 °C 1015.1 hPa NE 5 km/h 6 km/h 95% 0.0 mm
04:05 14 °C 14 °C 1015.1 hPa NE 3 km/h 6 km/h 96% 0.0 mm
04:10 14 °C 14 °C 1015.1 hPa NE 3 km/h 6 km/h 96% 0.0 mm
04:15 14 °C 14 °C 1015.1 hPa Calm   5 km/h 96% 0.0 mm
04:20 14 °C 14 °C 1016.1 hPa Calm     96% 0.0 mm
04:25 14 °C 14 °C 1016.1 hPa Calm     96% 0.0 mm
04:30 14 °C 13 °C 1016.1 hPa NE 2 km/h 6 km/h 96% 0.0 mm
04:35 14 °C 13 °C 1014.1 hPa NE 3 km/h 6 km/h 96% 0.0 mm
04:40 14 °C 14 °C 1014.1 hPa NE 3 km/h 6 km/h 97% 0.0 mm
04:45 14 °C 14 °C 1014.1 hPa NE 3 km/h 6 km/h 97% 0.0 mm
Juneau County Weather
Compliments of Weather Underground - 4 mb